Tracking 26006 objects as of 17-Aug-2022
HD Live streaming from Space Station
objects crossing your sky now

RESURS O1 DEB

Track RESURS O1 DEB now!
10-day predictions


NORAD ID: 49227
Int'l Code: 1994-074FF
Perigee: 611.5 km
Apogee: 614.6 km
Inclination: 97.9 °
Period: 96.8 minutes
Semi major axis: 6984 km
RCS: Unknown
Launch date: November 4, 1994
Source: Commonwealth of Independent States (former USSR) (CIS)
Launch site: TYURATAM MISSILE AND SPACE COMPLEX (TTMTR)

Note: This is SATELLITE DEBRIS
aabbcc
Your satellite tracking list
Your tracking list is empty




NASA's NSSDC Master Catalog

Two Line Element Set (TLE):
1 49227U 94074FF  22227.38294633  .00007477  00000-0  83133-3 0  9997
2 49227  97.9336 279.0759 0002227 327.4585  32.6494 14.87451767 56132
Source of the keplerian elements: AFSPC